Location: ??????????
(48.4699°N, 37.9573°E)
Time: 20:49:48
(UTC+00:00)

Lacrosse 5 - Pass Details

Date: 20 January 2021
Orbit: 715 x 724 km, 57.0° (Epoch: 01 March)

Event Time Altitude Azimuth Distance (km) Brightness Sun altitude
Rises 17:38:39 0° 298° (WNW) 3,123 6.1 -34.4°
Reaches altitude 10° 17:41:33 10° 283° (WNW) 2,199 5.2 -34.9°
Enters shadow 17:45:00 20° 239° (WSW) 1,602 4.0 -35.5°
